Tracking 23764 objects as of 17-Oct-2021
HD Live streaming from Space Station
objects crossing your sky now

COSMOS 767

Track COSMOS 767 now!
10-day predictions
COSMOS 767 is classified as:


NORAD ID: 8291
Int'l Code: 1975-086G
Perigee: 1,462.6 km
Apogee: 1,493.4 km
Inclination: 74.0 °
Period: 115.3 minutes
Semi major axis: 7848 km
RCS: 0.6985 m2 (medium)
Launch date: September 17, 1975
Source: Commonwealth of Independent States (former USSR) (CIS)
Launch site: PLESETSK MISSILE AND SPACE COMPLEX (PKMTR)
aabbcc
Your satellite tracking list
Your tracking list is empty




NASA's NSSDC Master Catalog

Two Line Element Set (TLE):
1 08291U 75086G   21289.58396875  .00000003  00000-0  12510-3 0  9994
2 08291  74.0063 104.6712 0019615 159.6396 270.1138 12.48489649100226
Source of the keplerian elements: AFSPC